Weather in Tyaya

Russia / Sakha (Yakutia) Republic     63°41′16″N   125°57′41″E
temp.,
°C
wind,
m/s
gust,
m/s
humid.,
%
clouds,
%
prec.,
mm/h
press.,
hPa
HPBL,
m
8 march, mon
mon800:00−27ese61296100 0.3 1008371
03:00−27ese61296100 0.6 1006387
06:00−27ese61396100 0.3 1005407
09:00−27ese61296100 0.7 1004403
12:00−25ese51096100 0.4 1003399
15:00−23ese4895100 0.5 1003406
18:00−23ese3696100 0.1 1005359
21:00−24ese259797 0.2 1006174
9 march, tue
tue900:00−24ese119888 0.1 100720
03:00−28se119987 0.1 100819
06:00−28wsw119945 0.0 101019
09:00−24wnw119767 0.1 101165
12:00−19w139291 0.0 1011286
15:00−15s129096 0.0 1010341
18:00−17ese339794 0.0 101049
21:00−17ese469797 0.1 1009120
10 march, wed
wed1000:00−16ese5996100 0.1 1006256
03:00−18ese71394100 0.1 1003394
06:00−18ese71495100 0.3 1000513
09:00−17ese81494100 0.7 999477
12:00−15ese5995100 0.6 1001450
15:00−10wsw5985100 1.6 10031037
18:00−12wsw41189100 0.2 1005921
21:00−14wsw41191100 0.3 1007597
11 march, thu
thu1100:00−15wsw41193100 0.1 1008702
03:00−16wsw4994100 0.4 1009632
06:00−18wsw4994100 0.1 1010385
09:00−19wsw4894100 0.3 1012464
12:00−17wsw4690100 0.1 1014586
15:00−16wsw3684100 0.1 1015811
18:00−19sw2292100 0.0 101621
21:00−22ssw229580 0.0 101620
12 march, fri
fri1200:00−23sse229419 0.0 101420
03:00−22ese469551 0.0 1011139
06:00−20ese61393100 0.0 1008367
09:00−20ese81694100 0.1 1004482
12:00−18ese81695100 0.9 1000653
15:00−15ese91691100 1.4 997632
18:00−15e71394100 0.6 996502
21:00−16e41095100 0.9 999325